Location: Ipswich
(52.0579°N, 1.1528°E)
Time: 09:11:23
(UTC+01:00)

ISS - Pass Details

Date: 06 May 2026
Orbit: 414 x 424 km, 51.6° (Epoch: 8 May)

Event Time Altitude Azimuth Distance (km) Brightness Sun altitude
Exits shadow 01:32:19 32° 90° (E) 743 -2.5 -20.9°
Drops below altitude 10° 01:34:15 10° 88° (E) 1,499 -0.8 -20.8°
Sets 01:36:21 0° 87° (E) 2,365 0.2 -20.8°
